Temp
64 64 64 64 64 64 63 66 65 65 67 66 66 65 65 65 65 68 63 70 72 71 69 75 76 75 73 68 74 73 63 61 63 63 67 69 69 69 70 69 68 70 71 73 70
64 63 64 64 63 63 62 61 66 65 66 66 65 65 65 65 67 64 70 70 71 70 72 71 68 72 66 66 68 71 63 64 68 68 67 68 69 70 70 67 68 68 67 72 66
63 63 63 64 64 63 62 62 61 66 66 65 65 64 64 69 62 63 69 70 70 71 74 73 72 68 64 67 67 68 64 68 66 69 68 67 66 72 71 67 74 70 67 64 64
62 62 62 63 63 63 62 61 59 65 66 65 65 64 64 70 51 67 68 69 70 75 73 66 65 64 61 61 65 64 69 69 66 66 67 66 67 68 71 76 72 76 72 64 63
61 61 61 62 63 63 63 61 60 59 65 65 64 64 64 57 62 71 67 69 73 71 70 67 61 62 59 65 63 63 64 66 63 66 67 65 66 68 69 73 71 73 69 64 64
60 60 61 61 62 62 62 62 61 59 65 65 64 63 61 52 70 70 71 69 72 71 70 70 63 65 62 63 62 64 65 63 64 65 66 64 66 65 73 73 69 69 68 65 66
60 60 60 60 61 62 62 61 61 61 64 64 64 63 57 58 71 71 70 69 71 72 67 70 69 63 61 59 62 63 60 64 62 62 63 66 62 63 73 68 69 68 68 65 67
59 59 59 60 60 61 61 61 60 59 64 64 64 61 53 66 71 68 70 67 71 73 72 71 67 59 59 57 58 58 60 52 65 61 59 66 57 68 70 68 69 70 69 63 65
58 58 58 59 59 59 61 60 58 59 64 64 58 56 49 60 61 68 71 65 68 69 69 68 64 56 55 51 48 52 48 53 58 63 62 63 59 64 65 65 70 70 69 66 67
57 58 58 58 58 59 59 60 59 59 61 61 60 50 49 51 58 64 70 68 63 63 60 59 53 49 52 50 41 42 48 52 54 59 59 58 59 67 65 62 66 70 69 68 68
57 57 58 58 57 59 59 56 49 51 55 52 51 56 52 60 63 62 67 64 63 60 50 52 46 44 50 54 57 53 53 53 57 58 58 59 60 65 70 62 64 66 68 68 68
57 57 57 58 58 58 58 51 53 58 48 52 56 55 58 61 50 58 68 57 54 49 52 45 43 54 57 58 52 54 51 53 57 58 57 59 57 64 67 64 66 68 68 68 69
56 56 56 57 55 54 54 54 61 62 48 46 53 52 53 59 51 53 62 56 52 48 49 46 52 53 53 49 48 47 47 52 52 54 56 56 55 60 65 63 65 65 69 69 68
55 55 56 55 50 54 52 58 60 65 39 38 42 48 53 55 48 60 63 57 51 46 50 50 54 51 49 50 51 41 51 51 51 48 43 55 41 58 64 64 61 64 65 66 67
55 55 55 55 49 50 58 58 62 53 27 39 41 49 49 49 48 50 64 56 48 48 48 45 46 47 48 47 52 46 52 49 46 47 40 46 41 54 59 58 63 64 66 66 68
53 54 54 51 50 51 59 58 53 36 28 34 41 41 42 44 48 46 51 57 59 50 52 47 51 53 51 51 53 52 43 42 39 37 32 43 42 50 58 59 65 67 67 68 68
53 53 52 53 47 55 56 51 35 30 35 31 36 41 42 39 41 45 43 42 42 38 38 42 45 49 54 45 50 46 43 31 30 30 37 44 43 51 63 63 66 68 69 69 69
52 53 52 52 51 50 53 41 30 32 34 39 40 39 37 41 42 43 43 40 46 51 40 35 32 43 51 50 42 41 43 36 29 31 40 39 40 51 61 61 66 65 68 67 68
52 49 48 50 51 49 46 32 33 36 38 37 38 36 33 37 40 41 42 44 46 52 43 39 37 47 47 52 50 41 37 48 37 29 35 45 50 57 58 62 61 62 63 65 67
46 46 47 52 52 46 41 34 33 43 45 42 36 43 32 34 37 40 41 50 45 49 54 48 35 44 46 51 48 48 50 37 38 29 31 44 43 48 55 58 63 63 64 67 66
44 39 45 51 49 40 32 32 35 46 49 45 40 41 43 37 42 42 42 46 50 47 53 51 44 35 43 42 44 44 43 42 44 40 35 35 46 59 60 62 61 62 63 63 63
40 33 45 50 34 38 34 34 43 46 50 47 48 48 43 44 42 44 40 44 53 51 46 49 42 33 37 46 48 51 47 44 39 32 40 36 42 56 59 59 58 60 60 61 60
33 35 43 42 31 33 35 37 44 43 46 47 43 48 49 44 38 40 41 50 53 51 49 47 40 30 32 40 43 44 46 48 48 40 34 35 44 62 59 57 58 59 61 62 59
35 32 35 35 36 35 34 35 37 48 44 46 46 49 47 43 45 39 40 44 50 53 47 50 42 41 36 41 41 36 42 45 44 35 40 41 48 56 56 57 59 59 61 61 61
35 32 32 30 33 37 42 38 36 35 43 47 44 46 46 40 39 40 40 42 46 48 50 51 37 42 44 45 45 43 41 42 41 44 40 46 45 52 58 59 61 64 61 57 57
33 33 32 32 33 35 39 37 37 42 43 43 43 47 48 42 44 39 42 43 42 46 48 46 36 42 33 40 43 39 43 44 43 45 46 47 46 57 60 60 59 60 60 58 58
37 36 35 34 32 33 36 40 41 45 43 47 48 46 45 48 50 49 51 49 47 47 46 43 36 34 32 35 37 33 39 43 45 48 47 41 49 56 55 56 58 60 61 61 62
MSLP
1010.83 1011.21 1011.74 1012.04 1012.48 1012.93 1013.40 1013.62 1014.00 1014.50 1014.69 1015.30 1016.07 1016.58 1017.07 1017.40 1017.70 1017.91 1017.39 1016.95 1017.16 1017.34 1017.77 1017.62 1017.52 1017.41 1017.22 1017.19 1017.02 1016.72 1016.50 1016.18 1016.07 1016.46 1016.47 1017.27 1017.22 1017.80 1018.24 1018.31 1018.83 1019.13 1019.28 1019.79 1021.01
1010.13 1010.58 1011.09 1011.49 1011.90 1012.48 1012.68 1013.46 1013.69 1014.06 1014.49 1014.75 1015.81 1016.79 1017.13 1017.42 1017.48 1017.12 1016.81 1016.92 1017.22 1017.33 1017.47 1017.43 1017.46 1017.28 1017.43 1017.49 1017.33 1016.36 1016.48 1016.47 1016.74 1016.95 1017.18 1017.51 1017.47 1017.58 1017.75 1018.15 1018.46 1019.02 1019.94 1020.24 1021.41
1009.42 1009.77 1010.16 1010.86 1011.45 1011.85 1012.26 1013.03 1013.69 1013.59 1013.92 1014.74 1015.59 1016.74 1017.10 1017.24 1017.35 1016.13 1016.53 1016.90 1017.06 1017.17 1017.23 1017.44 1017.53 1017.50 1017.58 1017.68 1017.14 1016.71 1016.47 1017.13 1017.36 1017.25 1017.56 1017.66 1017.80 1017.72 1017.30 1017.39 1017.29 1017.86 1019.36 1020.56 1021.25
1008.85 1009.22 1009.52 1010.02 1010.55 1010.93 1011.37 1012.30 1013.48 1013.34 1013.55 1014.44 1015.23 1016.63 1016.89 1016.69 1016.12 1015.37 1015.65 1016.36 1016.86 1016.98 1017.28 1017.66 1017.92 1017.95 1017.57 1017.41 1017.22 1017.26 1017.20 1017.20 1017.55 1017.76 1017.56 1017.89 1018.13 1017.59 1017.14 1016.56 1017.48 1017.74 1018.98 1020.25 1020.85
1008.19 1008.62 1008.93 1009.32 1009.91 1010.37 1010.83 1011.58 1013.28 1013.44 1013.14 1014.00 1015.11 1016.16 1016.46 1016.18 1015.15 1015.28 1015.60 1016.16 1016.61 1016.96 1016.95 1017.33 1017.81 1017.69 1017.50 1017.43 1017.83 1017.43 1017.55 1017.56 1017.74 1017.71 1018.06 1018.28 1018.01 1017.78 1017.04 1017.37 1017.75 1018.10 1019.18 1020.02 1020.52
1007.64 1007.99 1008.10 1008.48 1009.29 1009.95 1010.48 1011.36 1011.93 1012.75 1012.81 1013.62 1014.67 1015.65 1015.66 1015.07 1015.10 1015.09 1015.14 1016.26 1016.41 1016.66 1016.88 1017.14 1017.43 1017.72 1017.95 1017.94 1017.97 1017.82 1017.62 1017.85 1017.95 1017.94 1018.26 1018.19 1018.06 1018.12 1016.78 1017.36 1017.89 1018.43 1018.92 1019.86 1020.14
1007.03 1007.26 1007.52 1007.81 1008.48 1009.16 1009.82 1010.38 1011.15 1012.16 1012.41 1013.24 1014.02 1015.15 1015.18 1014.30 1014.61 1015.03 1015.34 1016.14 1016.71 1016.49 1016.68 1017.14 1017.41 1017.74 1018.32 1018.39 1018.48 1018.18 1017.90 1017.93 1018.09 1018.21 1018.27 1018.12 1017.81 1017.40 1017.20 1017.58 1017.73 1018.14 1018.78 1019.56 1019.99
1006.52 1006.80 1007.25 1007.59 1008.12 1008.59 1009.15 1009.56 1010.47 1011.37 1011.18 1012.59 1013.84 1014.57 1014.56 1014.80 1014.60 1015.01 1015.42 1016.34 1016.79 1017.02 1016.99 1017.30 1017.74 1018.49 1018.72 1019.15 1018.93 1018.57 1018.42 1018.18 1017.64 1018.08 1018.39 1017.94 1017.04 1016.75 1017.17 1017.54 1017.22 1017.76 1018.21 1019.22 1019.62
1005.98 1006.46 1006.83 1007.38 1007.69 1008.21 1008.67 1009.45 1010.17 1011.20 1010.62 1012.09 1013.67 1013.69 1014.88 1014.83 1014.74 1014.92 1015.02 1015.71 1016.78 1017.23 1017.54 1017.62 1017.89 1018.98 1019.55 1019.55 1019.55 1018.77 1018.14 1018.13 1017.92 1017.93 1018.08 1017.73 1016.78 1016.89 1017.11 1017.41 1016.94 1017.51 1017.77 1018.45 1019.11
1005.42 1005.87 1006.45 1006.72 1007.14 1007.65 1008.02 1008.79 1009.78 1011.03 1010.06 1011.59 1012.55 1013.62 1014.46 1013.71 1014.14 1014.83 1015.49 1015.84 1016.71 1017.27 1017.91 1018.04 1018.88 1019.28 1019.32 1018.90 1018.17 1018.73 1018.48 1018.17 1017.80 1017.99 1018.12 1017.45 1016.64 1016.40 1016.74 1017.11 1017.07 1017.11 1017.45 1017.76 1018.26
1004.84 1005.25 1005.92 1006.26 1006.73 1007.05 1008.15 1008.66 1009.61 1008.75 1007.87 1007.89 1008.92 1010.41 1012.46 1012.89 1013.73 1014.65 1015.20 1015.85 1016.66 1017.17 1017.50 1018.40 1018.68 1018.02 1018.36 1018.41 1018.37 1018.44 1018.43 1017.77 1017.92 1018.23 1018.08 1017.20 1016.42 1015.89 1016.12 1016.72 1016.66 1016.80 1016.90 1017.20 1017.33
1004.32 1004.62 1005.10 1005.34 1006.16 1006.34 1006.70 1005.88 1005.29 1005.87 1006.55 1008.75 1009.63 1011.13 1012.06 1011.75 1013.28 1014.24 1014.34 1015.28 1016.32 1016.65 1017.49 1018.72 1017.70 1017.93 1018.28 1018.59 1018.58 1018.63 1018.47 1018.05 1018.15 1018.56 1018.58 1017.35 1016.12 1015.75 1015.68 1015.55 1015.60 1015.87 1016.49 1016.57 1017.01
1004.03 1004.48 1004.54 1005.22 1005.75 1006.06 1005.28 1004.70 1005.75 1005.73 1007.00 1008.82 1009.59 1010.78 1011.32 1011.63 1012.57 1013.30 1013.85 1014.64 1015.78 1016.69 1016.93 1017.10 1017.18 1018.01 1018.22 1018.51 1018.68 1019.05 1018.92 1018.73 1018.79 1018.98 1018.80 1017.97 1015.62 1014.66 1014.58 1015.05 1015.26 1015.50 1015.58 1016.18 1016.26
1003.66 1004.17 1004.43 1004.77 1005.80 1004.65 1003.66 1004.42 1005.85 1004.43 1007.11 1009.30 1009.73 1010.86 1011.34 1011.86 1012.74 1013.16 1013.77 1014.23 1015.86 1016.44 1017.30 1017.41 1017.77 1017.67 1017.70 1018.35 1018.73 1019.47 1019.61 1019.63 1019.79 1019.95 1019.37 1018.62 1015.74 1013.43 1013.28 1013.49 1014.21 1014.42 1014.70 1015.05 1015.81
1003.18 1003.44 1003.61 1004.24 1004.19 1003.02 1003.01 1004.43 1003.46 1004.91 1006.50 1008.55 1009.76 1010.73 1011.04 1011.86 1011.69 1012.98 1013.32 1014.32 1014.66 1015.53 1016.72 1017.17 1017.46 1017.73 1017.96 1018.18 1019.06 1019.84 1020.38 1020.83 1021.35 1020.82 1020.59 1019.21 1018.07 1013.22 1013.12 1012.82 1012.21 1012.73 1013.39 1013.79 1014.51
1002.38 1002.51 1003.02 1003.84 1003.15 1003.00 1002.84 1003.53 1003.82 1004.88 1005.42 1007.25 1008.86 1010.13 1010.57 1011.83 1011.70 1013.36 1013.76 1014.10 1014.59 1015.86 1016.82 1017.72 1018.26 1018.15 1018.00 1018.47 1019.26 1020.04 1021.14 1022.38 1022.82 1022.66 1021.16 1019.21 1018.12 1013.03 1011.86 1011.29 1011.28 1011.52 1011.98 1012.51 1012.96
1002.06 1001.84 1002.30 1002.11 1001.56 1002.49 1001.77 1001.36 1002.65 1003.18 1005.61 1007.35 1007.74 1009.25 1009.99 1011.20 1010.97 1011.56 1012.93 1013.65 1013.43 1014.87 1016.18 1017.70 1018.42 1018.66 1018.41 1019.22 1020.06 1019.83 1021.11 1023.04 1023.59 1022.64 1019.33 1018.69 1017.34 1012.61 1010.96 1011.36 1010.74 1010.94 1010.92 1011.31 1011.90
1001.61 1001.27 1001.03 1001.14 1000.97 1002.30 1000.93 1000.85 1001.28 1002.34 1004.54 1006.27 1006.71 1009.57 1009.39 1010.44 1010.76 1011.08 1012.21 1013.05 1013.48 1013.35 1015.02 1016.46 1018.76 1018.29 1018.05 1017.95 1019.20 1020.37 1020.44 1021.30 1021.07 1020.74 1019.23 1018.92 1015.23 1011.94 1011.59 1011.42 1011.06 1011.23 1011.33 1011.42 1011.46
1001.15 1001.05 1000.76 1001.03 1001.14 1002.62 999.90 1000.11 1000.26 1001.52 1002.89 1004.10 1007.07 1007.88 1008.89 1010.04 1010.04 1010.59 1011.34 1011.36 1012.10 1012.19 1012.91 1015.22 1017.36 1018.09 1018.25 1018.05 1018.78 1020.38 1020.35 1020.44 1020.77 1021.08 1019.57 1016.64 1014.00 1012.38 1011.50 1010.96 1010.81 1010.92 1011.47 1011.33 1011.45
1000.95 1000.90 999.63 1000.28 1001.02 1001.20 998.92 999.56 1000.71 1000.74 1001.62 1002.55 1003.16 1004.30 1007.26 1008.78 1009.39 1009.90 1010.65 1010.60 1011.58 1012.32 1012.04 1013.58 1016.38 1018.10 1018.46 1018.32 1018.91 1018.35 1019.32 1020.26 1020.35 1019.66 1017.96 1014.84 1013.48 1011.61 1011.21 1010.90 1010.55 1010.51 1010.66 1010.74 1011.77
1000.81 1000.56 1000.47 999.45 1000.21 999.98 999.12 999.73 1000.47 1000.35 1000.09 1000.90 1000.78 1002.23 1004.06 1005.32 1006.57 1007.40 1008.40 1009.53 1010.40 1011.88 1011.98 1013.12 1014.58 1018.22 1018.48 1017.68 1017.44 1018.05 1018.30 1018.98 1019.04 1018.78 1017.12 1014.95 1011.96 1011.05 1010.56 1010.71 1010.77 1010.89 1011.19 1011.59 1011.90
1000.05 1000.07 1000.28 999.66 1000.35 999.42 999.30 999.61 999.51 999.67 1000.27 1000.19 1001.84 1002.00 1003.24 1004.70 1006.40 1007.26 1007.56 1008.19 1009.69 1010.78 1011.50 1012.69 1014.68 1016.94 1017.70 1017.81 1017.82 1016.99 1016.87 1017.36 1017.17 1017.96 1017.24 1015.93 1011.67 1010.74 1010.69 1010.82 1010.97 1011.25 1011.47 1011.99 1012.26
1000.41 1000.21 999.95 999.74 999.72 999.39 999.32 999.39 998.66 999.41 999.97 1000.47 1001.18 1001.36 1003.24 1004.96 1006.54 1007.56 1008.10 1008.71 1009.48 1009.86 1009.91 1011.79 1014.25 1016.50 1018.10 1018.32 1017.75 1016.74 1016.99 1016.90 1017.05 1017.41 1016.38 1015.39 1010.99 1009.73 1010.50 1010.96 1011.11 1011.38 1011.47 1011.71 1012.07
1000.00 1000.10 1000.41 1000.43 999.89 999.06 998.53 998.92 999.11 999.69 1000.05 1000.13 1000.94 1001.49 1003.23 1004.80 1005.75 1007.16 1008.20 1009.37 1009.78 1009.94 1010.41 1011.10 1012.89 1013.28 1013.68 1013.99 1015.16 1016.26 1016.09 1016.58 1016.80 1016.86 1014.52 1013.84 1009.94 1010.37 1010.43 1010.58 1011.00 1011.33 1011.41 1011.62 1011.72
1000.34 1001.11 1000.86 1000.55 999.74 998.67 997.77 998.46 998.51 999.50 999.35 999.73 1001.47 1000.56 1001.65 1003.72 1005.43 1006.20 1007.54 1009.03 1010.24 1010.02 1010.98 1011.16 1012.30 1013.45 1013.77 1013.95 1014.18 1014.30 1015.00 1015.90 1016.05 1013.80 1014.45 1010.85 1011.35 1009.92 1010.41 1010.44 1010.49 1010.29 1010.98 1011.43 1011.32
1000.46 1001.00 1001.19 1000.64 999.44 998.29 997.01 997.60 997.34 998.34 998.15 998.59 999.24 1000.33 1000.85 1001.15 1001.91 1004.31 1006.10 1007.80 1008.70 1010.54 1011.17 1011.74 1012.49 1013.16 1014.29 1014.61 1014.47 1014.35 1014.47 1014.23 1013.96 1014.01 1013.70 1011.87 1010.89 1010.74 1010.68 1010.78 1010.56 1010.30 1010.42 1010.75 1011.04
1001.03 1001.00 1000.80 1000.20 999.14 997.85 996.33 996.41 996.79 997.37 998.47 998.05 998.80 1000.03 1001.06 1001.03 1002.53 1004.09 1005.21 1006.02 1007.04 1008.63 1010.14 1011.59 1012.47 1013.59 1014.94 1014.97 1014.83 1014.37 1011.80 1012.84 1012.57 1012.81 1011.67 1012.04 1008.53 1009.87 1010.64 1010.67 1010.39 1010.02 1009.98 1010.11 1010.06
Wind_Speed
21 22 22 18 18 15 6 16 24 23 22 18 13 13 13 12 12 6 10 4 5 7 2 2 3 1 2 3 0 2 4 7 5 4 2 7 8 3 2 6 3 5 1 2 18
21 22 23 22 20 19 15 8 22 25 21 19 16 15 16 13 7 10 3 9 8 9 6 10 6 1 3 3 2 6 9 10 2 1 3 2 6 8 7 7 6 7 3 11 16
18 21 23 24 22 22 20 19 15 24 24 22 20 17 17 13 5 8 13 8 10 10 4 3 3 1 3 2 4 4 14 6 4 7 3 2 4 5 6 8 9 13 13 16 15
17 17 22 25 23 22 23 22 18 23 24 23 22 20 18 16 11 3 15 14 12 11 8 4 4 6 5 6 3 9 6 8 6 3 4 3 1 5 11 4 4 5 16 19 18
17 16 21 26 24 24 22 26 25 16 26 24 24 22 12 12 10 5 7 15 14 13 15 13 7 6 9 8 6 9 7 4 5 7 3 0 6 8 11 5 1 10 17 19 18
15 14 15 27 26 25 24 26 24 16 26 26 27 24 14 22 6 4 15 14 14 16 18 14 10 3 6 5 9 4 6 4 3 3 1 2 4 1 5 8 7 13 16 17 20
14 12 11 24 24 23 24 24 23 15 29 28 29 19 11 15 9 13 17 12 8 14 16 9 5 3 4 5 1 4 6 6 1 1 2 2 5 10 6 8 10 14 14 15 17
13 11 13 15 22 23 24 21 19 17 31 31 30 13 5 3 12 14 15 8 6 5 7 8 7 6 3 2 2 7 5 7 10 5 2 5 13 13 7 10 14 14 13 15 18
11 10 11 10 15 18 23 23 20 19 31 32 18 11 7 5 13 16 18 16 10 7 5 7 6 4 3 9 2 5 7 15 9 8 6 10 10 4 4 9 12 12 14 15 16
10 11 11 10 8 20 22 21 25 21 27 19 10 12 7 15 10 16 12 18 11 14 5 4 4 4 5 10 10 7 12 9 15 4 6 11 14 13 6 9 13 12 13 15 16
8 7 11 14 5 22 20 11 8 18 32 14 18 14 17 16 14 16 22 14 14 17 10 6 4 13 19 15 6 11 13 14 7 2 5 15 16 15 9 7 12 13 14 15 17
6 7 10 11 12 13 18 12 21 6 30 5 19 10 14 20 12 22 24 14 16 18 13 6 13 14 14 17 9 11 12 12 6 5 5 9 16 13 12 10 13 14 15 17 15
9 9 10 10 4 6 21 30 15 22 13 5 11 16 20 19 16 26 24 14 20 16 17 12 9 12 14 11 13 5 10 10 7 3 4 9 24 22 18 11 11 12 14 14 18
12 9 8 3 3 10 25 16 22 20 5 10 11 8 12 11 11 22 21 16 7 16 16 6 10 17 13 18 14 7 4 3 6 3 9 2 10 17 15 23 14 16 15 16 18
12 8 9 12 2 10 13 15 26 5 10 14 8 6 10 14 20 15 18 5 18 12 7 6 13 14 20 10 12 3 10 5 4 3 5 8 7 12 3 16 21 17 17 17 18
7 7 10 6 4 6 11 24 12 10 8 8 11 10 15 5 20 10 8 4 11 11 8 5 1 11 7 10 13 19 14 14 9 3 7 10 10 10 16 20 17 14 18 19 20
6 7 10 4 11 12 17 22 14 12 10 9 17 19 22 7 9 25 16 15 12 15 15 6 8 2 9 14 13 7 13 3 3 5 8 3 12 17 14 10 12 16 18 19 19
5 6 9 6 2 5 15 14 10 9 9 7 21 20 14 14 15 22 24 13 8 15 11 11 8 11 7 9 10 9 4 5 6 6 2 1 12 6 8 9 11 10 13 9 11
3 3 4 5 5 10 18 20 7 22 15 21 24 19 8 5 5 16 22 22 9 14 11 13 6 7 2 6 18 5 6 2 3 3 2 6 8 12 13 12 9 14 12 12 12
2 4 4 7 11 10 12 9 6 10 24 30 26 19 11 12 14 18 23 23 14 8 6 12 8 9 6 5 3 12 15 5 2 6 7 9 8 10 5 11 13 11 13 14 6
3 4 2 1 5 4 7 5 8 16 26 24 24 18 21 24 22 26 27 9 18 13 8 13 5 5 4 9 16 11 10 3 3 4 5 5 8 6 9 8 5 4 6 5 6
1 2 2 5 5 3 10 11 11 24 24 10 8 13 25 28 20 16 22 11 18 20 16 5 7 7 10 1 6 15 13 10 7 7 5 2 12 4 5 2 0 5 4 4 5
3 1 4 7 4 4 8 13 12 33 18 18 9 9 26 19 12 9 11 5 23 28 23 12 7 9 4 2 1 15 10 16 6 2 9 7 13 10 8 4 2 2 2 4 6
1 2 2 2 2 4 13 11 19 25 6 7 11 23 26 17 8 14 13 6 17 20 10 8 5 10 13 7 12 12 22 20 14 6 13 17 30 9 5 5 5 6 4 6 9
2 2 3 2 4 8 12 19 27 12 2 13 12 31 26 15 10 11 9 13 8 11 7 9 7 8 5 9 12 14 19 22 24 30 16 26 25 22 17 17 18 18 7 10 13
3 2 2 3 3 12 13 21 29 20 14 14 19 31 24 22 13 24 18 13 12 9 11 3 4 7 3 4 7 5 19 28 31 26 24 22 25 14 11 12 16 18 15 12 15
1 1 1 2 3 6 9 27 27 21 2 6 26 23 14 17 17 16 12 12 21 22 21 12 7 4 6 3 6 7 24 24 25 24 29 21 31 5 3 15 14 16 16 16 17
Wind_Direction
236 227 225 219 220 220 235 238 210 202 197 164 175 160 148 137 127 161 205 187 185 162 201 232 217 142 85 91 159 131 204 218 203 193 126 157 189 140 93 138 182 163 194 88 142
233 228 220 211 218 214 232 284 228 202 191 167 175 161 147 147 163 210 179 189 187 161 180 197 198 142 85 107 184 204 215 210 110 41 26 195 238 169 177 169 189 180 127 148 151
234 230 219 211 209 217 213 237 278 205 187 170 164 165 150 162 175 232 183 194 191 172 153 196 171 269 134 192 168 159 216 177 129 93 48 358 242 188 206 206 212 202 164 166 164
225 228 221 209 210 215 216 223 234 222 191 170 159 163 161 185 213 149 182 180 178 177 150 139 152 195 179 187 137 191 202 190 144 67 70 338 14 232 220 242 351 191 163 166 175
229 231 221 212 203 208 213 215 222 261 193 173 161 161 162 202 209 164 166 170 172 173 180 172 197 187 199 190 163 222 173 180 105 74 75 4 269 272 247 228 50 153 161 176 179
224 230 233 208 206 202 210 207 206 231 198 171 161 163 180 205 138 142 151 160 175 180 191 179 173 186 213 197 211 170 164 145 116 73 95 355 343 259 263 177 159 170 175 185 187
220 226 234 209 210 205 205 195 200 224 203 169 160 166 201 189 152 144 145 160 173 187 180 187 156 134 136 159 130 133 189 216 122 126 87 136 264 232 252 194 187 189 182 191 197
215 213 218 208 216 217 210 206 207 231 188 166 164 165 190 174 142 144 145 122 143 137 161 142 112 99 68 55 74 201 246 212 218 179 138 214 261 270 195 209 204 201 188 193 199
213 202 200 217 210 212 213 197 193 228 182 162 165 169 180 107 155 156 155 152 149 128 103 95 77 97 107 135 144 202 203 215 218 218 171 211 252 203 182 225 226 209 201 198 195
203 205 217 200 240 207 210 195 197 228 170 157 169 146 156 178 143 149 163 150 152 143 122 85 75 124 175 195 190 167 193 222 223 176 214 221 243 259 202 203 244 225 216 207 207
193 220 221 208 300 214 202 195 183 209 170 175 156 186 138 137 128 165 146 138 152 163 174 164 180 191 186 192 217 178 210 210 186 117 228 239 246 247 245 217 226 236 227 220 212
213 237 252 242 235 268 198 213 199 265 163 161 166 135 150 144 131 154 148 143 167 171 143 141 219 190 190 195 181 189 207 216 226 217 264 262 265 253 250 237 231 235 234 227 220
233 243 257 240 325 271 202 215 195 173 158 124 158 158 156 156 155 162 166 142 169 163 183 185 174 154 166 180 190 197 202 216 237 153 251 279 274 256 249 243 236 223 233 238 222
240 242 253 198 241 233 209 222 191 161 137 166 156 172 148 157 159 162 164 140 156 173 176 192 159 168 171 198 185 175 195 209 214 210 253 288 283 264 251 238 220 227 214 222 230
236 239 225 184 296 215 191 187 157 88 193 164 125 120 121 180 130 175 164 133 159 150 165 142 161 173 183 175 184 146 137 116 43 124 26 220 269 264 280 235 228 222 218 216 221
233 241 208 192 184 243 217 153 144 183 169 145 130 172 128 160 161 136 146 76 130 134 183 104 59 167 165 148 167 127 77 59 47 54 247 207 220 234 248 240 239 220 217 220 212
227 253 196 188 208 293 202 145 171 205 145 155 150 156 148 168 153 152 157 155 157 154 173 135 163 155 157 117 151 104 127 113 174 203 249 59 224 254 257 271 258 242 231 218 216
226 253 212 218 111 312 178 172 185 132 153 159 142 134 149 146 168 158 156 161 177 180 132 162 181 184 169 181 162 152 135 175 198 196 257 117 236 244 262 307 272 281 269 267 235
230 218 220 185 184 243 190 189 153 152 144 140 136 147 121 156 146 149 180 176 152 184 149 162 152 167 142 139 146 164 188 151 122 61 249 223 266 259 251 261 231 239 259 266 242
192 204 233 157 163 234 182 147 131 158 147 154 151 157 143 164 136 166 173 188 158 181 146 159 119 189 138 126 40 178 152 136 224 209 240 233 264 254 303 244 247 241 242 255 273
199 204 111 16 134 225 201 114 141 174 149 164 147 151 167 162 161 167 179 171 161 161 135 144 111 143 158 208 170 148 176 132 155 222 235 280 260 207 242 282 300 326 293 310 302
153 208 322 158 160 184 159 154 146 156 160 113 134 142 159 161 168 170 184 150 164 163 148 135 104 137 181 17 276 201 188 174 183 182 246 350 261 164 227 205 214 325 0 323 306
143 154 31 63 196 182 127 146 148 154 164 154 134 162 155 155 145 136 157 135 172 175 165 162 131 116 148 257 209 216 207 208 215 48 204 193 259 207 196 221 155 264 332 318 304
121 78 50 100 228 201 134 147 148 161 123 106 132 136 148 155 132 159 143 144 185 172 135 127 155 183 189 178 137 197 204 201 197 195 218 224 256 225 223 220 258 284 288 288 295
49 121 121 283 199 206 147 159 149 164 125 139 142 153 160 153 122 148 118 114 153 164 143 170 162 173 171 155 171 183 190 189 205 223 209 235 241 250 259 277 290 300 271 274 274
131 197 135 255 273 206 146 170 160 159 159 168 160 163 168 166 173 161 142 141 154 170 189 199 134 147 116 147 173 168 196 197 209 218 235 250 268 275 261 255 261 264 280 268 261
137 139 159 255 283 197 182 162 170 156 70 138 150 149 162 162 134 142 133 137 151 167 187 168 134 135 163 102 114 284 212 199 216 211 222 223 239 274 271 235 245 256 261 268 277